Meteo pe oră la Dziadyk

Astăzi, 7 Martie, Duminică

Timp Temperatura Precipitaţii Vânt Presiune Umiditate
00:00 -2°C° 0 mm 7 m/s 748 mmHg 81%
01:00 -2°C° 0 mm 8 m/s 747 mmHg 81%
02:00 -4°C° 0 mm 8 m/s 746 mmHg 83%
03:00 -4°C° 0 mm 8 m/s 746 mmHg 86%
04:00 -4°C° 0 mm 9 m/s 745 mmHg 88%
05:00 -4°C° 0.2 mm 9 m/s 745 mmHg 89%
06:00 -4°C° 0.2 mm 9 m/s 744 mmHg 90%
07:00 -4°C° 0.2 mm 9 m/s 744 mmHg 91%
08:00 -4°C° 0.2 mm 9 m/s 744 mmHg 90%
09:00 -4°C° 0.2 mm 9 m/s 744 mmHg 89%
10:00 -3°C° 0.2 mm 9 m/s 744 mmHg 88%
11:00 -3°C° 0.4 mm 9 m/s 743 mmHg 88%
12:00 -3°C° 0.4 mm 9 m/s 743 mmHg 88%
13:00 -3°C° 0.4 mm 9 m/s 743 mmHg 88%
14:00 -2°C° 0.6 mm 8 m/s 743 mmHg 90%
15:00 -3°C° 0.6 mm 7 m/s 743 mmHg 93%
16:00 -3°C° 0.6 mm 6 m/s 743 mmHg 96%
17:00 -4°C° 0.6 mm 5 m/s 743 mmHg 91%
18:00 -3°C° 0.6 mm 4 m/s 743 mmHg 87%
19:00 -4°C° 0.6 mm 3 m/s 743 mmHg 82%
20:00 -5°C° 0 mm 3 m/s 743 mmHg 83%
21:00 -5°C° 0 mm 3 m/s 743 mmHg 84%
22:00 -5°C° 0 mm 2 m/s 744 mmHg 85%
23:00 -5°C° 0 mm 2 m/s 744 mmHg 84%

Mâine, 8 Martie, Luni

Timp Temperatura Precipitaţii Vânt Presiune Umiditate
00:00 -6°C° 0 mm 3 m/s 744 mmHg 83%
01:00 -6°C° 0 mm 3 m/s 744 mmHg 83%
02:00 -6°C° 0 mm 3 m/s 744 mmHg 84%
03:00 -6°C° 0 mm 3 m/s 744 mmHg 85%
04:00 -7°C° 0 mm 4 m/s 744 mmHg 87%
05:00 -6°C° 0.1 mm 3 m/s 745 mmHg 87%
06:00 -5°C° 0.1 mm 3 m/s 745 mmHg 87%
07:00 -5°C° 0.1 mm 3 m/s 746 mmHg 86%
08:00 -4°C° 0.1 mm 4 m/s 746 mmHg 81%
09:00 -3°C° 0.1 mm 4 m/s 747 mmHg 76%
10:00 -2°C° 0.1 mm 5 m/s 747 mmHg 71%
11:00 -2°C° 0.1 mm 5 m/s 747 mmHg 69%
12:00 -1°C° 0.1 mm 5 m/s 748 mmHg 67%
13:00 -1°C° 0.1 mm 5 m/s 748 mmHg 65%
14:00 -1°C° 0.1 mm 5 m/s 748 mmHg 66%
15:00 -2°C° 0.1 mm 5 m/s 748 mmHg 67%
16:00 -2°C° 0.1 mm 5 m/s 748 mmHg 69%
17:00 -3°C° 0 mm 4 m/s 748 mmHg 74%
18:00 -4°C° 0 mm 3 m/s 749 mmHg 80%
19:00 -4°C° 0 mm 2 m/s 749 mmHg 85%
20:00 -4°C° 0 mm 2 m/s 749 mmHg 85%
21:00 -5°C° 0 mm 2 m/s 750 mmHg 85%
22:00 -5°C° 0 mm 2 m/s 750 mmHg 85%
23:00 -5°C° 0 mm 2 m/s 750 mmHg 84%

Poimâine, 9 Martie, Marţi

Timp Temperatura Precipitaţii Vânt Presiune Umiditate
00:00 -3°C° 0 mm 1 m/s 750 mmHg 84%
01:00 -3°C° 0 mm 1 m/s 751 mmHg 83%
02:00 -3°C° 0 mm 1 m/s 750 mmHg 81%
03:00 -3°C° 0 mm 1 m/s 750 mmHg 80%
04:00 -3°C° 0 mm 1 m/s 750 mmHg 79%
05:00 -3°C° 0 mm 1 m/s 751 mmHg 78%
06:00 -3°C° 0 mm 1 m/s 751 mmHg 77%
07:00 -3°C° 0 mm 1 m/s 751 mmHg 76%
08:00 -2°C° 0 mm 1 m/s 751 mmHg 69%
09:00 -1°C° 0 mm 1 m/s 751 mmHg 62%
10:00 0°C° 0 mm 1 m/s 751 mmHg 55%
11:00 +1°C° 0 mm 1 m/s 751 mmHg 52%
12:00 0°C° 0 mm 0 m/s 752 mmHg 48%
13:00 +1°C° 0 mm 0 m/s 752 mmHg 44%
14:00 0°C° 0 mm 0 m/s 751 mmHg 45%
15:00 +1°C° 0 mm 1 m/s 751 mmHg 46%
16:00 +1°C° 0 mm 1 m/s 750 mmHg 47%
17:00 0°C° 0 mm 1 m/s 750 mmHg 51%
18:00 -1°C° 0 mm 1 m/s 751 mmHg 56%
19:00 -2°C° 0 mm 1 m/s 751 mmHg 61%
20:00 -2°C° 0 mm 1 m/s 751 mmHg 61%
21:00 -2°C° 0 mm 1 m/s 751 mmHg 61%
22:00 -4°C° 0 mm 2 m/s 751 mmHg 61%
23:00 -4°C° 0 mm 2 m/s 751 mmHg 61%

10 Martie, Miercuri

Timp Temperatura Precipitaţii Vânt Presiune Umiditate
00:00 -4°C° 0 mm 2 m/s 751 mmHg 60%
01:00 -4°C° 0 mm 2 m/s 751 mmHg 60%
02:00 -4°C° 0 mm 2 m/s 750 mmHg 60%
03:00 -4°C° 0 mm 2 m/s 750 mmHg 60%
04:00 -4°C° 0 mm 2 m/s 750 mmHg 60%
05:00 -4°C° 0 mm 2 m/s 750 mmHg 61%
06:00 -4°C° 0 mm 2 m/s 750 mmHg 62%
07:00 -4°C° 0 mm 2 m/s 750 mmHg 62%
08:00 -4°C° 0 mm 3 m/s 750 mmHg 59%
09:00 -2°C° 0 mm 3 m/s 751 mmHg 55%
10:00 -1°C° 0 mm 3 m/s 751 mmHg 51%
11:00 0°C° 0 mm 3 m/s 750 mmHg 49%
12:00 +1°C° 0 mm 3 m/s 750 mmHg 47%
13:00 +1°C° 0 mm 3 m/s 750 mmHg 45%
14:00 +1°C° 0 mm 3 m/s 750 mmHg 46%
15:00 +1°C° 0 mm 3 m/s 749 mmHg 48%
16:00 +1°C° 0 mm 3 m/s 749 mmHg 50%
17:00 0°C° 0 mm 3 m/s 749 mmHg 54%
18:00 -1°C° 0 mm 3 m/s 748 mmHg 57%
19:00 -2°C° 0 mm 3 m/s 748 mmHg 61%
20:00 -2°C° 0 mm 3 m/s 748 mmHg 60%
21:00 -3°C° 0 mm 4 m/s 748 mmHg 58%
22:00 -3°C° 0 mm 4 m/s 747 mmHg 57%
23:00 -4°C° 0 mm 5 m/s 747 mmHg 58%

11 Martie, Joi

Timp Temperatura Precipitaţii Vânt Presiune Umiditate
00:00 -4°C° 0 mm 5 m/s 746 mmHg 59%
01:00 -4°C° 0 mm 5 m/s 745 mmHg 60%
02:00 -2°C° 0 mm 5 m/s 744 mmHg 62%
03:00 -3°C° 0 mm 6 m/s 743 mmHg 63%
04:00 -3°C° 0 mm 6 m/s 742 mmHg 65%
05:00 -3°C° 0 mm 6 m/s 741 mmHg 67%
06:00 -3°C° 0 mm 6 m/s 741 mmHg 69%
07:00 -2°C° 0 mm 7 m/s 740 mmHg 71%
08:00 -2°C° 0.3 mm 7 m/s 739 mmHg 79%
09:00 -2°C° 0.3 mm 7 m/s 738 mmHg 87%
10:00 -2°C° 0.3 mm 7 m/s 738 mmHg 95%
11:00 -1°C° 0.4 mm 7 m/s 737 mmHg 94%
12:00 0°C° 0.4 mm 7 m/s 736 mmHg 93%
13:00 0°C° 0.4 mm 8 m/s 735 mmHg 92%
14:00 +2°C° 0.3 mm 7 m/s 735 mmHg 92%
15:00 +2°C° 0.3 mm 7 m/s 734 mmHg 92%
16:00 +3°C° 0.3 mm 7 m/s 733 mmHg 92%
17:00 +3°C° 0.3 mm 7 m/s 733 mmHg 90%
18:00 +4°C° 0.3 mm 7 m/s 732 mmHg 89%
19:00 +4°C° 0.3 mm 7 m/s 732 mmHg 87%
20:00 +4°C° 0.5 mm 6 m/s 732 mmHg 86%
21:00 +3°C° 0.5 mm 6 m/s 733 mmHg 86%
22:00 +3°C° 0.5 mm 6 m/s 733 mmHg 85%
23:00 +2°C° 0 mm 6 m/s 733 mmHg 84%

12 Martie, Vineri

Timp Temperatura Precipitaţii Vânt Presiune Umiditate
00:00 +2°C° 0 mm 6 m/s 733 mmHg 83%
01:00 +1°C° 0 mm 6 m/s 733 mmHg 83%
02:00 +1°C° 0 mm 6 m/s 733 mmHg 85%
03:00 +1°C° 0 mm 6 m/s 733 mmHg 87%
04:00 +1°C° 0 mm 6 m/s 733 mmHg 89%
05:00 +1°C° 0 mm 6 m/s 732 mmHg 88%
06:00 0°C° 0 mm 7 m/s 732 mmHg 88%
07:00 +2°C° 0 mm 7 m/s 732 mmHg 87%
08:00 +1°C° 0.1 mm 8 m/s 732 mmHg 82%
09:00 +2°C° 0.1 mm 8 m/s 732 mmHg 76%
10:00 +3°C° 0.1 mm 9 m/s 732 mmHg 70%
11:00 +3°C° 0.1 mm 9 m/s 732 mmHg 67%
12:00 +5°C° 0.1 mm 10 m/s 732 mmHg 63%
13:00 +5°C° 0.1 mm 10 m/s 731 mmHg 60%
14:00 +5°C° 0.1 mm 10 m/s 731 mmHg 63%
15:00 +3°C° 0.1 mm 10 m/s 731 mmHg 67%
16:00 +3°C° 0.1 mm 10 m/s 731 mmHg 70%
17:00 +3°C° 0 mm 9 m/s 731 mmHg 74%
18:00 +2°C° 0 mm 9 m/s 732 mmHg 78%
19:00 +1°C° 0 mm 8 m/s 733 mmHg 81%
20:00 +1°C° 0 mm 8 m/s 733 mmHg 82%
21:00 +2°C° 0 mm 7 m/s 734 mmHg 83%
22:00 +2°C° 0 mm 7 m/s 734 mmHg 83%
23:00 +2°C° 0 mm 7 m/s 734 mmHg 84%
Arată mai mult

Formular de consimțământ

Meteoprog și furnizorii noștri de servicii pot stoca și accesa date personale, precum cookies, identificatori de dispozitiv sau alte tehnologii similare pe dispozitivul dumneavoastră și procesa astfel de date pentru a personaliza conținutul și reclamele, dar și pentru a oferi caracteristici de social media și pentru a analiza traficul.

  • Stocarea și/sau accesarea informațiilor pe dispozitivul dumneavoastră

    Cookies, identificatori de dispozitiv sau alte informații pot fi stocate sau accesate pe dispozitiv în scopurile indicate mai sus.

  • Reclame și conținut personalizat, evaluarea reclamelor și a conținutului, informații despre audiențe și dezvoltarea produselor

    Reclamele și conținutul pot fi personalizate pe baza unui profil. Pot fi adăugate date suplimentare pentru a personaliza mai bine reclamele și conținutul. Performanța reclamelor și conținutului poate fi măsurată. Pot fi obținute informații despre utilizatorii care au văzut reclamele și conținutul. Aceste date pot fi utilizate pentru a dezvolta sau îmbunătăți experiența utilizatorilor, sistemele și software-ul.

Dând clic pe ‘Sunt de acord’, permiteți utilizarea cookie-urilor menționate, a identificatorilor de dispozitiv, balizelor web sau altor tehnologii similare. Setările pot fi modificate din browser-ul dispozitivului dumneavoastră.

În anumite scopuri, interesele legitime pot prima asupra consimțământului. Puteți citi mai multe informații în acest sens în Politica privind Confidențialitatea Datelor și Cookie.